Time,TemperatureF,DewpointF,PressureIn,WindDirection,WindDirectionDegrees,WindSpeedMPH,WindSpeedGustMPH,Humidity,HourlyPrecipIn,Conditions,Clouds,dailyrainin,SoftwareType,DateUTC
2013-01-31 00:00:00,57.7,49.5,28.53,North,0,0.0,0.0,74,0.00,,,0.00,VWS V14.01,2013-01-31 05:00:00,
2013-01-31 00:01:00,57.7,49.5,28.56,North,0,0.0,0.0,74,0.00,,,0.00,VWS V14.01,2013-01-31 05:01:00,
2013-01-31 00:06:00,57.7,49.5,28.56,North,0,0.0,0.0,74,0.00,,,0.00,VWS V14.01,2013-01-31 05:06:00,
2013-01-31 00:11:00,57.7,49.5,28.56,North,0,0.0,0.0,74,0.00,,,0.00,VWS V14.01,2013-01-31 05:11:00,
2013-01-31 00:16:00,57.7,49.5,28.56,NNW,346,0.0,0.0,74,0.00,,,0.00,VWS V14.01,2013-01-31 05:16:00,
2013-01-31 00:21:00,57.7,49.5,28.56,North,353,0.0,2.7,74,0.00,,,0.00,VWS V14.01,2013-01-31 05:21:00,
2013-01-31 00:26:00,57.9,49.7,28.56,NNW,345,2.7,2.7,74,0.00,,,0.00,VWS V14.01,2013-01-31 05:26:00,
2013-01-31 00:31:00,58.1,49.9,28.56,North,350,0.0,0.0,74,0.00,,,0.00,VWS V14.01,2013-01-31 05:31:00,
2013-01-31 00:36:00,58.3,50.4,28.56,NNE,16,0.0,2.2,75,0.00,,,0.00,VWS V14.01,2013-01-31 05:36:00,
2013-01-31 00:41:00,58.3,50.8,28.56,North,353,0.0,2.2,76,0.00,,,0.00,VWS V14.01,2013-01-31 05:41:00,
2013-01-31 00:46:00,58.1,50.9,28.53,NE,49,0.0,3.1,77,0.00,,,0.00,VWS V14.01,2013-01-31 05:46:00,
2013-01-31 00:51:00,58.1,50.9,28.53,NNW,334,2.2,3.6,77,0.00,,,0.00,VWS V14.01,2013-01-31 05:51:00,
2013-01-31 00:56:00,58.1,50.9,28.53,North,353,0.0,0.0,77,0.00,,,0.00,VWS V14.01,2013-01-31 05:56:00,
2013-01-31 01:01:00,57.9,50.8,28.50,North,353,0.0,0.0,77,0.00,,,0.00,VWS V14.01,2013-01-31 06:01:00,
2013-01-31 01:06:00,57.9,50.8,28.50,North,353,0.0,0.0,77,0.00,,,0.00,VWS V14.01,2013-01-31 06:06:00,
2013-01-31 01:11:00,57.9,50.8,28.50,North,353,0.0,0.0,77,0.00,,,0.00,VWS V14.01,2013-01-31 06:11:00,
2013-01-31 01:16:00,57.7,50.6,28.53,North,353,0.0,0.0,77,0.00,,,0.00,VWS V14.01,2013-01-31 06:16:00,
2013-01-31 01:21:00,57.6,50.4,28.53,SE,124,0.0,0.0,77,0.00,,,0.00,VWS V14.01,2013-01-31 06:21:00,
2013-01-31 01:26:00,57.6,50.4,28.53,SE,143,6.7,6.7,77,0.00,,,0.00,VWS V14.01,2013-01-31 06:26:00,
2013-01-31 01:31:00,57.7,50.6,28.53,NNW,345,0.0,2.7,77,0.00,,,0.00,VWS V14.01,2013-01-31 06:31:00,
2013-01-31 01:36:00,57.7,50.6,28.53,ESE,123,0.0,0.0,77,0.00,,,0.00,VWS V14.01,2013-01-31 06:36:00,
2013-01-31 01:41:00,57.7,50.6,28.53,ENE,66,0.0,0.0,77,0.00,,,0.00,VWS V14.01,2013-01-31 06:41:00,
2013-01-31 01:46:00,57.7,50.6,28.53,NW,316,0.0,2.7,77,0.00,,,0.00,VWS V14.01,2013-01-31 06:46:00,
2013-01-31 01:51:00,57.7,50.6,28.53,North,0,2.7,2.7,77,0.00,,,0.00,VWS V14.01,2013-01-31 06:51:00,
2013-01-31 01:56:00,57.7,50.6,28.53,NW,322,2.7,4.0,77,0.00,,,0.00,VWS V14.01,2013-01-31 06:56:00,
2013-01-31 02:01:00,57.9,50.8,28.50,North,349,0.0,3.6,77,0.00,,,0.00,VWS V14.01,2013-01-31 07:01:00,
2013-01-31 02:06:00,57.7,50.6,28.50,WNW,300,0.0,3.6,77,0.00,,,0.00,VWS V14.01,2013-01-31 07:06:00,
2013-01-31 02:11:00,57.7,50.6,28.50,NNW,346,2.7,2.7,77,0.00,,,0.00,VWS V14.01,2013-01-31 07:11:00,
2013-01-31 02:17:00,57.6,50.1,28.53,NNE,28,4.0,4.0,76,0.00,,,0.00,VWS V14.01,2013-01-31 07:17:00,
2013-01-31 02:22:00,57.2,49.7,28.53,East,86,3.1,4.0,76,0.00,,,0.00,VWS V14.01,2013-01-31 07:22:00,
2013-01-31 02:27:00,57.0,49.2,28.53,NE,47,3.1,4.9,75,0.00,,,0.00,VWS V14.01,2013-01-31 07:27:00,
2013-01-31 02:32:00,56.8,48.7,28.53,NNE,18,4.0,7.6,74,0.00,,,0.00,VWS V14.01,2013-01-31 07:32:00,
2013-01-31 02:37:00,56.7,48.1,28.53,NNW,346,10.5,10.5,73,0.00,,,0.00,VWS V14.01,2013-01-31 07:37:00,
2013-01-31 02:42:00,53.4,39.5,28.53,ESE,107,5.8,5.8,59,0.00,,,0.00,VWS V14.01,2013-01-31 07:42:00,
2013-01-31 02:47:00,52.7,37.5,28.53,NNW,334,8.3,8.3,56,0.00,,,0.00,VWS V14.01,2013-01-31 07:47:00,
2013-01-31 02:52:00,52.3,35.2,28.53,NW,326,10.5,14.5,52,0.00,,,0.00,VWS V14.01,2013-01-31 07:52:00,
2013-01-31 02:57:00,52.2,34.6,28.53,NNW,332,11.0,11.0,51,0.00,,,0.00,VWS V14.01,2013-01-31 07:57:00,
2013-01-31 03:02:00,52.0,33.9,28.56,WNW,287,2.7,6.3,50,0.00,,,0.00,VWS V14.01,2013-01-31 08:02:00,
2013-01-31 03:07:00,51.6,33.1,28.56,NNW,340,11.0,11.0,49,0.00,,,0.00,VWS V14.01,2013-01-31 08:07:00,
2013-01-31 03:12:00,51.3,31.7,28.56,North,353,8.3,8.3,47,0.00,,,0.00,VWS V14.01,2013-01-31 08:12:00,
2013-01-31 03:17:00,50.7,29.6,28.56,SE,145,13.2,13.2,44,0.00,,,0.00,VWS V14.01,2013-01-31 08:17:00,
2013-01-31 03:22:00,50.4,28.2,28.56,NNW,328,8.1,16.8,42,0.00,,,0.00,VWS V14.01,2013-01-31 08:22:00,
2013-01-31 03:27:00,50.0,27.2,28.56,NW,318,12.8,12.8,41,0.00,,,0.00,VWS V14.01,2013-01-31 08:27:00,
2013-01-31 03:32:00,49.3,26.0,28.59,South,181,11.0,11.0,40,0.00,,,0.00,VWS V14.01,2013-01-31 08:32:00,
2013-01-31 03:37:00,48.6,24.1,28.59,WNW,295,7.6,7.6,38,0.00,,,0.00,VWS V14.01,2013-01-31 08:37:00,
2013-01-31 03:42:00,48.0,23.6,28.59,NNW,328,12.3,15.4,38,0.00,,,0.00,VWS V14.01,2013-01-31 08:42:00,
2013-01-31 03:47:00,47.7,23.3,28.59,NNW,327,4.0,4.0,38,0.00,,,0.00,VWS V14.01,2013-01-31 08:47:00,
2013-01-31 03:52:00,47.3,22.4,28.59,NNE,15,6.3,6.3,37,0.00,,,0.00,VWS V14.01,2013-01-31 08:52:00,
2013-01-31 03:57:00,46.8,21.2,28.59,NNW,343,9.2,13.2,36,0.00,,,0.00,VWS V14.01,2013-01-31 08:57:00,
2013-01-31 04:02:00,46.2,20.8,28.61,NW,319,11.4,15.9,36,0.00,,,0.00,VWS V14.01,2013-01-31 09:02:00,
2013-01-31 04:07:00,45.9,20.4,28.61,NNW,332,5.8,5.8,36,0.00,,,0.00,VWS V14.01,2013-01-31 09:07:00,
2013-01-31 04:12:00,45.5,20.1,28.61,NNW,332,3.1,3.1,36,0.00,,,0.00,VWS V14.01,2013-01-31 09:12:00,
2013-01-31 04:17:00,45.1,20.4,28.61,NNW,334,9.6,11.0,37,0.00,,,0.00,VWS V14.01,2013-01-31 09:17:00,
2013-01-31 04:22:00,45.0,20.3,28.61,NE,53,4.0,5.8,37,0.00,,,0.00,VWS V14.01,2013-01-31 09:22:00,
2013-01-31 04:27:00,44.8,20.1,28.61,NNW,329,5.4,8.3,37,0.00,,,0.00,VWS V14.01,2013-01-31 09:27:00,
2013-01-31 04:32:00,44.8,20.1,28.64,NW,313,11.0,11.0,37,0.00,,,0.00,VWS V14.01,2013-01-31 09:32:00,
2013-01-31 04:37:00,45.1,19.8,28.64,NNW,344,12.3,12.8,36,0.00,,,0.00,VWS V14.01,2013-01-31 09:37:00,
2013-01-31 04:42:00,45.1,19.8,28.64,NW,326,10.5,10.5,36,0.00,,,0.00,VWS V14.01,2013-01-31 09:42:00,
2013-01-31 04:47:00,45.0,19.6,28.64,WNW,286,5.8,15.0,36,0.00,,,0.00,VWS V14.01,2013-01-31 09:47:00,
2013-01-31 04:52:00,45.0,19.6,28.64,NNW,327,8.3,8.3,36,0.00,,,0.00,VWS V14.01,2013-01-31 09:52:00,
2013-01-31 04:57:00,44.6,20.0,28.64,NNW,345,6.3,6.3,37,0.00,,,0.00,VWS V14.01,2013-01-31 09:57:00,
2013-01-31 05:02:00,44.2,20.3,28.67,WNW,288,5.8,5.8,38,0.00,,,0.00,VWS V14.01,2013-01-31 10:02:00,
2013-01-31 05:07:00,43.9,19.9,28.67,WNW,287,10.5,15.0,38,0.00,,,0.00,VWS V14.01,2013-01-31 10:07:00,
2013-01-31 05:12:00,43.5,19.0,28.67,NE,52,12.3,12.3,37,0.00,,,0.00,VWS V14.01,2013-01-31 10:12:00,
2013-01-31 05:17:00,43.0,17.2,28.70,NW,325,13.2,13.2,35,0.00,,,0.00,VWS V14.01,2013-01-31 10:17:00,
2013-01-31 05:22:00,42.8,16.4,28.70,North,0,7.2,14.5,34,0.00,,,0.00,VWS V14.01,2013-01-31 10:22:00,
2013-01-31 05:27:00,42.8,15.7,28.70,NNW,339,2.7,2.7,33,0.00,,,0.00,VWS V14.01,2013-01-31 10:27:00,
2013-01-31 05:32:00,42.4,14.7,28.70,NW,319,10.1,15.9,32,0.00,,,0.00,VWS V14.01,2013-01-31 10:32:00,
2013-01-31 05:37:00,42.4,14.7,28.70,NW,317,16.8,17.0,32,0.00,,,0.00,VWS V14.01,2013-01-31 10:37:00,
2013-01-31 05:42:00,42.3,14.5,28.70,NW,325,10.5,11.0,32,0.00,,,0.00,VWS V14.01,2013-01-31 10:42:00,
2013-01-31 05:47:00,42.1,15.1,28.70,NNW,342,8.1,8.1,33,0.00,,,0.00,VWS V14.01,2013-01-31 10:47:00,
2013-01-31 05:52:00,41.9,14.2,28.70,NNW,333,13.2,17.4,32,0.00,,,0.00,VWS V14.01,2013-01-31 10:52:00,
2013-01-31 05:57:00,41.9,14.2,28.70,NNE,17,4.0,8.3,32,0.00,,,0.00,VWS V14.01,2013-01-31 10:57:00,
2013-01-31 06:02:00,41.9,14.2,28.73,NW,305,10.5,10.5,32,0.00,,,0.00,VWS V14.01,2013-01-31 11:02:00,
2013-01-31 06:07:00,41.7,14.8,28.73,WNW,298,13.6,13.6,33,0.00,,,0.00,VWS V14.01,2013-01-31 11:07:00,
2013-01-31 06:12:00,41.5,15.3,28.73,ENE,71,5.4,5.4,34,0.00,,,0.00,VWS V14.01,2013-01-31 11:12:00,
2013-01-31 06:17:00,41.2,15.0,28.76,WNW,300,8.3,10.5,34,0.00,,,0.00,VWS V14.01,2013-01-31 11:17:00,
2013-01-31 06:22:00,40.5,13.6,28.76,North,1,6.3,23.7,33,0.00,,,0.00,VWS V14.01,2013-01-31 11:22:00,
2013-01-31 06:27:00,40.3,13.5,28.76,NE,55,11.0,11.0,33,0.00,,,0.00,VWS V14.01,2013-01-31 11:27:00,
2013-01-31 06:32:00,40.1,13.3,28.79,North,353,8.1,15.4,33,0.00,,,0.00,VWS V14.01,2013-01-31 11:32:00,
2013-01-31 06:37:00,39.7,13.0,28.79,SSE,149,4.0,11.0,33,0.00,,,0.00,VWS V14.01,2013-01-31 11:37:00,
2013-01-31 06:42:00,39.6,12.1,28.79,NNW,343,15.4,15.4,32,0.00,,,0.00,VWS V14.01,2013-01-31 11:42:00,
2013-01-31 06:47:00,39.2,11.8,28.79,NNE,24,5.8,6.3,32,0.00,,,0.00,VWS V14.01,2013-01-31 11:47:00,
2013-01-31 06:52:00,39.0,12.4,28.79,NW,324,8.3,10.1,33,0.00,,,0.00,VWS V14.01,2013-01-31 11:52:00,
2013-01-31 06:57:00,39.0,12.4,28.79,NW,310,6.3,13.6,33,0.00,,,0.00,VWS V14.01,2013-01-31 11:57:00,
2013-01-31 07:02:00,38.8,12.2,28.82,North,353,7.2,13.2,33,0.00,,,0.00,VWS V14.01,2013-01-31 12:02:00,
2013-01-31 07:07:00,38.8,12.2,28.82,NNW,341,6.3,13.2,33,0.00,,,0.00,VWS V14.01,2013-01-31 12:07:00,
2013-01-31 07:12:00,38.7,12.1,28.82,NNW,337,5.4,5.4,33,0.00,,,0.00,VWS V14.01,2013-01-31 12:12:00,
2013-01-31 07:17:00,38.7,12.1,28.82,NNW,341,7.6,8.1,33,0.00,,,0.00,VWS V14.01,2013-01-31 12:17:00,
2013-01-31 07:22:00,38.7,12.1,28.82,NW,324,6.3,10.5,33,0.00,,,0.00,VWS V14.01,2013-01-31 12:22:00,
2013-01-31 07:27:00,38.5,11.2,28.82,NW,316,6.3,8.7,32,0.00,,,0.00,VWS V14.01,2013-01-31 12:27:00,
2013-01-31 07:32:00,38.5,11.2,28.82,NNW,338,5.8,7.6,32,0.00,,,0.00,VWS V14.01,2013-01-31 12:32:00,
2013-01-31 07:37:00,38.3,11.7,28.82,NNW,332,4.9,10.5,33,0.00,,,0.00,VWS V14.01,2013-01-31 12:37:00,
2013-01-31 07:42:00,38.3,11.7,28.82,NNW,335,2.7,3.1,33,0.00,,,0.00,VWS V14.01,2013-01-31 12:42:00,
2013-01-31 07:47:00,38.5,11.9,28.85,WNW,283,2.7,10.5,33,0.00,,,0.00,VWS V14.01,2013-01-31 12:47:00,
2013-01-31 07:52:00,38.5,11.2,28.85,NNW,337,16.3,16.3,32,0.00,,,0.00,VWS V14.01,2013-01-31 12:52:00,
2013-01-31 07:57:00,38.3,10.3,28.85,SW,225,10.5,13.2,31,0.00,,,0.00,VWS V14.01,2013-01-31 12:57:00,
2013-01-31 08:02:00,38.1,10.2,28.85,WNW,302,12.3,13.2,31,0.00,,,0.00,VWS V14.01,2013-01-31 13:02:00,
2013-01-31 08:07:00,38.1,10.2,28.85,NW,304,8.7,14.5,31,0.00,,,0.00,VWS V14.01,2013-01-31 13:07:00,
2013-01-31 08:13:00,38.3,10.3,28.85,North,357,3.6,10.5,31,0.00,,,0.00,VWS V14.01,2013-01-31 13:13:00,
2013-01-31 08:18:00,38.3,10.3,28.85,NNW,329,8.1,8.1,31,0.00,,,0.00,VWS V14.01,2013-01-31 13:18:00,
2013-01-31 08:23:00,38.3,10.3,28.85,North,353,8.3,8.3,31,0.00,,,0.00,VWS V14.01,2013-01-31 13:23:00,
2013-01-31 08:28:00,38.5,10.5,28.85,NE,45,7.6,17.4,31,0.00,,,0.00,VWS V14.01,2013-01-31 13:28:00,
2013-01-31 08:33:00,38.7,10.6,28.88,North,353,8.3,11.0,31,0.00,,,0.00,VWS V14.01,2013-01-31 13:33:00,
2013-01-31 08:38:00,38.5,10.5,28.88,NNE,20,5.8,10.5,31,0.00,,,0.00,VWS V14.01,2013-01-31 13:38:00,
2013-01-31 08:43:00,38.3,10.3,28.88,North,353,10.1,10.1,31,0.00,,,0.00,VWS V14.01,2013-01-31 13:43:00,
2013-01-31 08:48:00,38.5,10.5,28.88,NNW,330,8.3,8.3,31,0.00,,,0.00,VWS V14.01,2013-01-31 13:48:00,
2013-01-31 08:53:00,38.7,10.6,28.88,NNE,19,3.6,7.6,31,0.00,,,0.00,VWS V14.01,2013-01-31 13:53:00,
2013-01-31 08:58:00,38.8,10.8,28.88,North,353,8.7,8.7,31,0.00,,,0.00,VWS V14.01,2013-01-31 13:58:00,
2013-01-31 09:03:00,38.8,10.8,28.88,NE,43,3.6,10.1,31,0.00,,,0.00,VWS V14.01,2013-01-31 14:03:00,
2013-01-31 09:08:00,38.7,9.9,28.88,NE,42,8.1,8.1,30,0.00,,,0.00,VWS V14.01,2013-01-31 14:08:00,
2013-01-31 09:13:00,39.0,10.2,28.88,NW,318,16.3,16.3,30,0.00,,,0.00,VWS V14.01,2013-01-31 14:13:00,
2013-01-31 09:18:00,39.4,10.5,28.91,NW,326,5.8,5.8,30,0.00,,,0.00,VWS V14.01,2013-01-31 14:18:00,
2013-01-31 09:23:00,39.6,10.7,28.91,NNW,327,8.3,8.3,30,0.00,,,0.00,VWS V14.01,2013-01-31 14:23:00,
2013-01-31 09:28:00,40.1,11.2,28.91,North,353,0.0,0.0,30,0.00,,,0.00,VWS V14.01,2013-01-31 14:28:00,
2013-01-31 09:33:00,40.5,11.5,28.91,NNW,338,11.0,11.0,30,0.00,,,0.00,VWS V14.01,2013-01-31 14:33:00,
2013-01-31 09:38:00,40.5,11.5,28.91,NNW,333,8.3,8.3,30,0.00,,,0.00,VWS V14.01,2013-01-31 14:38:00,
2013-01-31 09:43:00,40.3,10.6,28.91,NNW,337,9.2,9.2,29,0.00,,,0.00,VWS V14.01,2013-01-31 14:43:00,
2013-01-31 09:48:00,40.3,11.3,28.94,NNW,341,10.5,14.5,30,0.00,,,0.00,VWS V14.01,2013-01-31 14:48:00,
2013-01-31 09:53:00,39.7,10.1,28.94,North,353,6.3,8.3,29,0.00,,,0.00,VWS V14.01,2013-01-31 14:53:00,
2013-01-31 09:58:00,40.1,10.4,28.94,NW,313,19.7,19.7,29,0.00,,,0.00,VWS V14.01,2013-01-31 14:58:00,
2013-01-31 10:03:00,39.7,10.1,28.94,NNE,25,8.1,8.3,29,0.00,,,0.00,VWS V14.01,2013-01-31 15:03:00,
2013-01-31 10:08:00,39.2,9.6,28.94,NNW,333,13.2,13.2,29,0.00,,,0.00,VWS V14.01,2013-01-31 15:08:00,
2013-01-31 10:13:00,39.2,9.6,28.94,WSW,254,6.3,17.4,29,0.00,,,0.00,VWS V14.01,2013-01-31 15:13:00,
2013-01-31 10:18:00,39.7,10.9,28.94,West,270,4.9,8.7,30,0.00,,,0.00,VWS V14.01,2013-01-31 15:18:00,
2013-01-31 10:23:00,39.7,10.9,28.94,NW,313,10.5,13.2,30,0.00,,,0.00,VWS V14.01,2013-01-31 15:23:00,
2013-01-31 10:28:00,39.7,10.9,28.94,NNW,341,2.2,4.0,30,0.00,,,0.00,VWS V14.01,2013-01-31 15:28:00,
2013-01-31 10:33:00,39.4,10.5,28.94,WNW,290,5.8,5.8,30,0.00,,,0.00,VWS V14.01,2013-01-31 15:33:00,
2013-01-31 10:38:00,39.0,10.2,28.94,North,0,0.0,0.0,30,0.00,,,0.00,VWS V14.01,2013-01-31 15:38:00,
2013-01-31 10:43:00,39.4,10.5,28.94,NNW,331,2.7,6.3,30,0.00,,,0.00,VWS V14.01,2013-01-31 15:43:00,
2013-01-31 10:48:00,39.2,11.8,28.97,NE,34,3.6,10.1,32,0.00,,,0.00,VWS V14.01,2013-01-31 15:48:00,
2013-01-31 10:53:00,38.5,11.9,28.97,NNE,19,8.1,10.5,33,0.00,,,0.00,VWS V14.01,2013-01-31 15:53:00,
2013-01-31 10:58:00,38.5,11.2,28.97,North,353,5.8,7.6,32,0.00,,,0.00,VWS V14.01,2013-01-31 15:58:00,
2013-01-31 11:03:00,38.5,10.5,28.97,NW,319,12.8,12.8,31,0.00,,,0.00,VWS V14.01,2013-01-31 16:03:00,
2013-01-31 11:08:00,38.8,10.8,28.97,West,272,4.0,4.0,31,0.00,,,0.00,VWS V14.01,2013-01-31 16:08:00,
2013-01-31 11:13:00,39.2,10.4,28.97,North,5,14.5,14.5,30,0.00,,,0.00,VWS V14.01,2013-01-31 16:13:00,
2013-01-31 11:18:00,39.2,9.6,28.97,WNW,297,7.6,15.9,29,0.00,,,0.00,VWS V14.01,2013-01-31 16:18:00,
2013-01-31 11:23:00,39.9,10.2,28.97,NW,318,5.4,9.6,29,0.00,,,0.00,VWS V14.01,2013-01-31 16:23:00,
2013-01-31 11:28:00,40.6,10.9,28.97,North,350,11.0,11.0,29,0.00,,,0.00,VWS V14.01,2013-01-31 16:28:00,
2013-01-31 11:33:00,40.6,10.9,28.97,West,280,5.4,13.2,29,0.00,,,0.00,VWS V14.01,2013-01-31 16:33:00,
2013-01-31 11:38:00,40.5,10.7,28.97,West,268,8.7,15.0,29,0.00,,,0.00,VWS V14.01,2013-01-31 16:38:00,
2013-01-31 11:43:00,40.6,10.9,28.97,NW,314,8.1,8.1,29,0.00,,,0.00,VWS V14.01,2013-01-31 16:43:00,
2013-01-31 11:48:00,40.8,10.2,29.00,North,5,10.5,10.5,28,0.00,,,0.00,VWS V14.01,2013-01-31 16:48:00,
2013-01-31 11:53:00,40.5,9.9,29.00,NW,320,12.3,12.3,28,0.00,,,0.00,VWS V14.01,2013-01-31 16:53:00,
2013-01-31 11:58:00,39.9,9.5,29.00,NW,322,9.2,9.2,28,0.00,,,0.00,VWS V14.01,2013-01-31 16:58:00,
2013-01-31 12:03:00,39.9,9.5,29.00,NE,44,5.4,10.1,28,0.00,,,0.00,VWS V14.01,2013-01-31 17:03:00,
2013-01-31 12:08:00,39.7,9.3,29.00,WNW,303,10.1,11.9,28,0.00,,,0.00,VWS V14.01,2013-01-31 17:08:00,
2013-01-31 12:13:00,39.4,9.0,29.00,NNW,335,12.8,13.2,28,0.00,,,0.00,VWS V14.01,2013-01-31 17:13:00,
2013-01-31 12:18:00,39.2,7.2,29.00,NW,316,15.0,24.6,26,0.00,,,0.00,VWS V14.01,2013-01-31 17:18:00,
2013-01-31 12:23:00,38.7,6.7,29.00,WNW,283,15.4,17.4,26,0.00,,,0.00,VWS V14.01,2013-01-31 17:23:00,
2013-01-31 12:28:00,38.7,6.7,29.00,SW,223,4.5,8.3,26,0.00,,,0.00,VWS V14.01,2013-01-31 17:28:00,
2013-01-31 12:33:00,38.8,6.9,29.00,East,85,3.1,5.8,26,0.00,,,0.00,VWS V14.01,2013-01-31 17:33:00,
2013-01-31 12:38:00,39.2,7.2,29.00,NW,314,8.7,16.3,26,0.00,,,0.00,VWS V14.01,2013-01-31 17:38:00,
2013-01-31 12:43:00,39.2,7.2,29.00,NW,319,5.4,11.9,26,0.00,,,0.00,VWS V14.01,2013-01-31 17:43:00,
2013-01-31 12:48:00,38.7,6.7,29.00,NNW,327,12.8,12.8,26,0.00,,,0.00,VWS V14.01,2013-01-31 17:48:00,
2013-01-31 12:54:00,38.3,6.4,29.00,South,186,5.4,8.7,26,0.00,,,0.00,VWS V14.01,2013-01-31 17:54:00,
2013-01-31 12:59:00,38.5,6.6,29.00,NNE,14,3.1,8.7,26,0.00,,,0.00,VWS V14.01,2013-01-31 17:59:00,
2013-01-31 13:04:00,38.8,6.9,29.00,North,357,8.3,8.3,26,0.00,,,0.00,VWS V14.01,2013-01-31 18:04:00,
2013-01-31 13:09:00,38.8,6.9,29.00,NE,48,3.6,12.8,26,0.00,,,0.00,VWS V14.01,2013-01-31 18:09:00,
2013-01-31 13:14:00,38.7,6.7,29.00,NNW,337,4.0,11.9,26,0.00,,,0.00,VWS V14.01,2013-01-31 18:14:00,
2013-01-31 13:19:00,38.3,8.8,29.00,NNW,340,5.4,8.7,29,0.00,,,0.00,VWS V14.01,2013-01-31 18:19:00,
2013-01-31 13:24:00,37.2,7.9,29.00,NE,44,2.2,4.9,29,0.00,,,0.00,VWS V14.01,2013-01-31 18:24:00,
2013-01-31 13:29:00,37.9,8.5,29.00,NW,305,5.4,6.3,29,0.00,,,0.00,VWS V14.01,2013-01-31 18:29:00,
2013-01-31 13:34:00,38.3,6.4,29.00,East,92,3.6,10.1,26,0.00,,,0.00,VWS V14.01,2013-01-31 18:34:00,
2013-01-31 13:39:00,38.1,6.3,29.00,WNW,295,12.3,12.3,26,0.00,,,0.00,VWS V14.01,2013-01-31 18:39:00,
2013-01-31 13:44:00,38.5,6.6,29.00,NNE,17,9.6,10.5,26,0.00,,,0.00,VWS V14.01,2013-01-31 18:44:00,
2013-01-31 13:49:00,38.8,6.9,29.00,NNE,23,3.6,8.1,26,0.00,,,0.00,VWS V14.01,2013-01-31 18:49:00,
2013-01-31 13:54:00,38.3,6.4,29.00,North,353,12.3,15.9,26,0.00,,,0.00,VWS V14.01,2013-01-31 18:54:00,
2013-01-31 13:59:00,37.9,6.1,29.00,East,91,3.1,14.5,26,0.00,,,0.00,VWS V14.01,2013-01-31 18:59:00,
2013-01-31 14:04:00,37.6,4.1,29.03,NNW,333,10.5,12.8,24,0.00,,,0.00,VWS V14.01,2013-01-31 19:04:00,
2013-01-31 14:09:00,37.2,3.8,29.03,NW,317,8.7,8.7,24,0.00,,,0.00,VWS V14.01,2013-01-31 19:09:00,
2013-01-31 14:14:00,37.0,3.6,29.03,NNW,331,11.9,11.9,24,0.00,,,0.00,VWS V14.01,2013-01-31 19:14:00,
2013-01-31 14:19:00,37.2,3.8,29.03,NNE,14,6.3,6.3,24,0.00,,,0.00,VWS V14.01,2013-01-31 19:19:00,
2013-01-31 14:24:00,37.0,6.2,29.03,NNW,339,13.2,13.2,27,0.00,,,0.00,VWS V14.01,2013-01-31 19:24:00,
2013-01-31 14:29:00,36.7,5.9,29.03,West,277,12.3,12.3,27,0.00,,,0.00,VWS V14.01,2013-01-31 19:29:00,
2013-01-31 14:34:00,36.7,5.9,29.03,NW,315,11.9,11.9,27,0.00,,,0.00,VWS V14.01,2013-01-31 19:34:00,
2013-01-31 14:39:00,36.9,3.5,29.03,NW,322,5.8,5.8,24,0.00,,,0.00,VWS V14.01,2013-01-31 19:39:00,
2013-01-31 14:44:00,37.0,6.2,29.03,East,97,5.8,6.7,27,0.00,,,0.00,VWS V14.01,2013-01-31 19:44:00,
2013-01-31 14:49:00,37.9,6.1,29.03,South,173,8.1,8.1,26,0.00,,,0.00,VWS V14.01,2013-01-31 19:49:00,
2013-01-31 14:54:00,37.8,8.4,29.03,North,353,10.1,10.1,29,0.00,,,0.00,VWS V14.01,2013-01-31 19:54:00,
2013-01-31 14:59:00,36.5,5.7,29.03,NNW,328,3.1,7.2,27,0.00,,,0.00,VWS V14.01,2013-01-31 19:59:00,
2013-01-31 15:04:00,35.8,7.4,29.06,WNW,285,18.3,18.3,30,0.00,,,0.00,VWS V14.01,2013-01-31 20:04:00,
2013-01-31 15:09:00,34.5,7.0,29.06,NNW,334,13.2,13.2,31,0.00,,,0.00,VWS V14.01,2013-01-31 20:09:00,
2013-01-31 15:14:00,34.7,6.4,29.06,NW,325,6.3,8.1,30,0.00,,,0.00,VWS V14.01,2013-01-31 20:14:00,
2013-01-31 15:19:00,34.9,6.6,29.06,NNW,330,13.2,13.2,30,0.00,,,0.00,VWS V14.01,2013-01-31 20:19:00,
2013-01-31 15:24:00,35.4,7.1,29.06,NNW,339,10.1,10.1,30,0.00,,,0.00,VWS V14.01,2013-01-31 20:24:00,
2013-01-31 15:29:00,35.8,5.1,29.06,North,0,4.0,7.6,27,0.00,,,0.00,VWS V14.01,2013-01-31 20:29:00,
2013-01-31 15:34:00,36.1,5.4,29.06,NW,305,10.1,10.1,27,0.00,,,0.00,VWS V14.01,2013-01-31 20:34:00,
2013-01-31 15:39:00,36.3,5.6,29.06,NNW,332,5.4,24.6,27,0.00,,,0.00,VWS V14.01,2013-01-31 20:39:00,
2013-01-31 15:44:00,36.5,5.7,29.06,NNW,335,7.2,7.2,27,0.00,,,0.00,VWS V14.01,2013-01-31 20:44:00,
2013-01-31 15:49:00,36.3,5.6,29.06,NNE,18,6.3,6.3,27,0.00,,,0.00,VWS V14.01,2013-01-31 20:49:00,
2013-01-31 15:54:00,36.3,5.6,29.06,NE,52,10.5,10.5,27,0.00,,,0.00,VWS V14.01,2013-01-31 20:54:00,
2013-01-31 15:59:00,36.3,3.0,29.06,North,357,6.3,8.3,24,0.00,,,0.00,VWS V14.01,2013-01-31 20:59:00,
2013-01-31 16:04:00,36.3,5.6,29.06,North,0,5.4,5.8,27,0.00,,,0.00,VWS V14.01,2013-01-31 21:04:00,
2013-01-31 16:09:00,36.5,5.7,29.06,NNW,341,3.1,5.8,27,0.00,,,0.00,VWS V14.01,2013-01-31 21:09:00,
2013-01-31 16:14:00,36.5,5.7,29.06,WSW,246,5.4,5.4,27,0.00,,,0.00,VWS V14.01,2013-01-31 21:14:00,
2013-01-31 16:19:00,36.1,5.4,29.06,NNE,20,3.6,4.0,27,0.00,,,0.00,VWS V14.01,2013-01-31 21:19:00,
2013-01-31 16:24:00,36.0,5.2,29.06,ESE,120,8.1,8.3,27,0.00,,,0.00,VWS V14.01,2013-01-31 21:24:00,
2013-01-31 16:29:00,35.8,2.5,29.06,North,1,12.3,12.3,24,0.00,,,0.00,VWS V14.01,2013-01-31 21:29:00,
2013-01-31 16:34:00,35.6,4.9,29.09,NE,43,5.4,8.3,27,0.00,,,0.00,VWS V14.01,2013-01-31 21:34:00,
2013-01-31 16:39:00,35.4,4.8,29.09,NW,314,9.6,11.4,27,0.00,,,0.00,VWS V14.01,2013-01-31 21:39:00,
2013-01-31 16:44:00,35.4,3.1,29.09,WNW,299,12.3,17.0,25,0.00,,,0.00,VWS V14.01,2013-01-31 21:44:00,
2013-01-31 16:49:00,35.4,4.8,29.09,West,270,3.6,5.8,27,0.00,,,0.00,VWS V14.01,2013-01-31 21:49:00,
2013-01-31 16:54:00,35.2,4.6,29.09,SSE,167,3.1,5.4,27,0.00,,,0.00,VWS V14.01,2013-01-31 21:54:00,
2013-01-31 16:59:00,34.9,4.3,29.09,NNW,328,11.9,11.9,27,0.00,,,0.00,VWS V14.01,2013-01-31 21:59:00,
2013-01-31 17:04:00,34.5,4.0,29.09,NNW,343,7.6,12.3,27,0.00,,,0.00,VWS V14.01,2013-01-31 22:04:00,
2013-01-31 17:09:00,34.5,6.3,29.09,NW,315,19.2,19.2,30,0.00,,,0.00,VWS V14.01,2013-01-31 22:09:00,
2013-01-31 17:14:00,34.3,6.1,29.09,East,81,2.7,11.0,30,0.00,,,0.00,VWS V14.01,2013-01-31 22:14:00,
2013-01-31 17:19:00,34.2,6.0,29.12,NNW,328,8.7,11.0,30,0.00,,,0.00,VWS V14.01,2013-01-31 22:19:00,
2013-01-31 17:24:00,33.8,5.7,29.12,WNW,292,2.7,10.5,30,0.00,,,0.00,VWS V14.01,2013-01-31 22:24:00,
2013-01-31 17:29:00,33.4,5.3,29.12,North,353,12.8,12.8,30,0.00,,,0.00,VWS V14.01,2013-01-31 22:29:00,
2013-01-31 17:34:00,33.1,3.5,29.12,North,0,2.2,5.8,28,0.00,,,0.00,VWS V14.01,2013-01-31 22:34:00,
2013-01-31 17:39:00,33.1,3.5,29.12,North,353,8.3,8.3,28,0.00,,,0.00,VWS V14.01,2013-01-31 22:39:00,
2013-01-31 17:44:00,32.9,3.4,29.12,West,262,7.6,8.3,28,0.00,,,0.00,VWS V14.01,2013-01-31 22:44:00,
2013-01-31 17:49:00,32.9,0.9,29.15,North,8,4.9,5.8,25,0.00,,,0.00,VWS V14.01,2013-01-31 22:49:00,
2013-01-31 17:54:00,32.7,3.2,29.15,WNW,297,3.1,3.6,28,0.00,,,0.00,VWS V14.01,2013-01-31 22:54:00,
2013-01-31 17:59:00,32.5,3.1,29.15,NNE,16,3.1,7.6,28,0.00,,,0.00,VWS V14.01,2013-01-31 22:59:00,
2013-01-31 18:04:00,32.2,2.8,29.15,NNW,339,3.1,8.1,28,0.00,,,0.00,VWS V14.01,2013-01-31 23:04:00,
2013-01-31 18:09:00,32.0,2.6,29.15,NNW,336,6.3,7.6,28,0.00,,,0.00,VWS V14.01,2013-01-31 23:09:00,
2013-01-31 18:14:00,31.8,2.4,29.15,NW,305,8.1,10.5,28,0.00,,,0.00,VWS V14.01,2013-01-31 23:14:00,
2013-01-31 18:19:00,31.5,-0.3,29.18,NW,318,3.1,5.4,25,0.00,,,0.00,VWS V14.01,2013-01-31 23:19:00,
2013-01-31 18:24:00,31.3,-0.4,29.18,NW,306,6.3,8.1,25,0.00,,,0.00,VWS V14.01,2013-01-31 23:24:00,
2013-01-31 18:30:00,31.3,-0.4,29.18,WNW,292,5.8,12.3,25,0.00,,,0.00,VWS V14.01,2013-01-31 23:30:00,
2013-01-31 18:35:00,31.1,-0.6,29.18,NE,39,6.3,11.0,25,0.00,,,0.00,VWS V14.01,2013-01-31 23:35:00,
2013-01-31 18:40:00,31.1,-0.6,29.18,NNE,32,6.3,6.3,25,0.00,,,0.00,VWS V14.01,2013-01-31 23:40:00,
2013-01-31 18:45:00,31.1,-0.6,29.18,NNW,348,8.3,8.3,25,0.00,,,0.00,VWS V14.01,2013-01-31 23:45:00,
2013-01-31 18:50:00,31.1,-0.6,29.18,NW,316,8.7,8.7,25,0.00,,,0.00,VWS V14.01,2013-01-31 23:50:00,
2013-01-31 18:55:00,31.1,-0.6,29.18,NNW,333,10.1,10.1,25,0.00,,,0.00,VWS V14.01,2013-01-31 23:55:00,
2013-01-31 19:00:00,31.1,-0.6,29.18,NNW,345,7.6,8.7,25,0.00,,,0.00,VWS V14.01,2013-02-01 00:00:00,
2013-01-31 19:05:00,31.1,-0.6,29.18,NNW,336,6.3,6.3,25,0.00,,,0.00,VWS V14.01,2013-02-01 00:05:00,
2013-01-31 19:10:00,31.1,-0.6,29.18,NE,55,2.7,5.4,25,0.00,,,0.00,VWS V14.01,2013-02-01 00:10:00,
2013-01-31 19:15:00,31.1,-0.6,29.18,NNW,329,2.7,4.9,25,0.00,,,0.00,VWS V14.01,2013-02-01 00:15:00,
2013-01-31 19:20:00,31.1,-0.6,29.18,WNW,298,4.0,4.0,25,0.00,,,0.00,VWS V14.01,2013-02-01 00:20:00,
2013-01-31 19:25:00,31.1,-0.6,29.18,West,270,5.4,5.4,25,0.00,,,0.00,VWS V14.01,2013-02-01 00:25:00,
2013-01-31 19:30:00,31.1,-0.6,29.18,North,357,5.4,5.4,25,0.00,,,0.00,VWS V14.01,2013-02-01 00:30:00,
2013-01-31 19:35:00,31.1,-0.6,29.18,NW,304,0.0,0.0,25,0.00,,,0.00,VWS V14.01,2013-02-01 00:35:00,
2013-01-31 19:40:00,31.1,-0.6,29.18,NNW,330,0.0,0.0,25,0.00,,,0.00,VWS V14.01,2013-02-01 00:40:00,
2013-01-31 19:45:00,31.1,-0.6,29.18,NNW,346,0.0,3.6,25,0.00,,,0.00,VWS V14.01,2013-02-01 00:45:00,
2013-01-31 19:50:00,31.1,-0.6,29.18,NW,311,4.9,4.9,25,0.00,,,0.00,VWS V14.01,2013-02-01 00:50:00,
2013-01-31 19:55:00,30.9,-0.8,29.18,NW,324,2.7,4.0,25,0.00,,,0.00,VWS V14.01,2013-02-01 00:55:00,
2013-01-31 20:00:00,30.9,-0.8,29.18,NW,323,3.1,3.1,25,0.00,,,0.00,VWS V14.01,2013-02-01 01:00:00,
2013-01-31 20:05:00,30.7,-0.9,29.18,North,353,5.4,5.4,25,0.00,,,0.00,VWS V14.01,2013-02-01 01:05:00,
2013-01-31 20:10:00,30.7,-0.9,29.18,NNW,329,5.8,5.8,25,0.00,,,0.00,VWS V14.01,2013-02-01 01:10:00,
2013-01-31 20:15:00,30.7,-0.9,29.18,North,0,6.3,6.3,25,0.00,,,0.00,VWS V14.01,2013-02-01 01:15:00,
2013-01-31 20:20:00,30.7,-0.9,29.18,NW,319,5.4,5.4,25,0.00,,,0.00,VWS V14.01,2013-02-01 01:20:00,
2013-01-31 20:25:00,30.7,-0.9,29.18,WNW,297,8.1,8.1,25,0.00,,,0.00,VWS V14.01,2013-02-01 01:25:00,
2013-01-31 20:30:00,30.6,-1.1,29.18,NNW,346,7.6,10.5,25,0.00,,,0.00,VWS V14.01,2013-02-01 01:30:00,
2013-01-31 20:35:00,30.7,-0.9,29.18,North,357,8.7,8.7,25,0.00,,,0.00,VWS V14.01,2013-02-01 01:35:00,
2013-01-31 20:40:00,30.6,-1.1,29.18,NNW,344,0.0,2.7,25,0.00,,,0.00,VWS V14.01,2013-02-01 01:40:00,
2013-01-31 20:45:00,30.6,-1.1,29.18,NNW,340,4.0,4.0,25,0.00,,,0.00,VWS V14.01,2013-02-01 01:45:00,
2013-01-31 20:50:00,30.4,-1.2,29.15,North,0,8.1,8.7,25,0.00,,,0.00,VWS V14.01,2013-02-01 01:50:00,
2013-01-31 20:55:00,30.4,-1.2,29.15,WNW,298,3.6,3.6,25,0.00,,,0.00,VWS V14.01,2013-02-01 01:55:00,
2013-01-31 21:00:00,30.4,-1.2,29.15,NNW,339,6.3,6.3,25,0.00,,,0.00,VWS V14.01,2013-02-01 02:00:00,
2013-01-31 21:05:00,30.2,-1.4,29.18,NNE,28,5.4,6.3,25,0.00,,,0.00,VWS V14.01,2013-02-01 02:05:00,
2013-01-31 21:10:00,30.4,-1.2,29.18,NNW,328,3.1,8.1,25,0.00,,,0.00,VWS V14.01,2013-02-01 02:10:00,
2013-01-31 21:15:00,30.6,-1.1,29.18,NW,325,3.1,10.5,25,0.00,,,0.00,VWS V14.01,2013-02-01 02:15:00,
2013-01-31 21:20:00,30.7,-0.9,29.18,North,353,0.0,4.9,25,0.00,,,0.00,VWS V14.01,2013-02-01 02:20:00,
2013-01-31 21:25:00,30.7,-0.9,29.18,NW,324,4.0,8.7,25,0.00,,,0.00,VWS V14.01,2013-02-01 02:25:00,
2013-01-31 21:30:00,30.7,-0.9,29.18,North,357,3.6,8.3,25,0.00,,,0.00,VWS V14.01,2013-02-01 02:30:00,
2013-01-31 21:35:00,30.9,-0.8,29.18,NNW,332,4.9,5.8,25,0.00,,,0.00,VWS V14.01,2013-02-01 02:35:00,
2013-01-31 21:40:00,30.9,-0.8,29.18,WNW,301,4.9,4.9,25,0.00,,,0.00,VWS V14.01,2013-02-01 02:40:00,
2013-01-31 21:45:00,30.9,-0.8,29.18,North,353,5.4,8.1,25,0.00,,,0.00,VWS V14.01,2013-02-01 02:45:00,
2013-01-31 21:50:00,30.9,-0.8,29.18,NNE,23,2.2,4.5,25,0.00,,,0.00,VWS V14.01,2013-02-01 02:50:00,
2013-01-31 21:55:00,30.9,-0.8,29.18,North,353,5.8,8.7,25,0.00,,,0.00,VWS V14.01,2013-02-01 02:55:00,
2013-01-31 22:00:00,30.7,-0.9,29.18,NNW,346,3.1,3.1,25,0.00,,,0.00,VWS V14.01,2013-02-01 03:00:00,
2013-01-31 22:05:00,30.7,-0.9,29.18,North,0,0.0,2.7,25,0.00,,,0.00,VWS V14.01,2013-02-01 03:05:00,
2013-01-31 22:10:00,30.7,-0.9,29.18,NNW,334,0.0,0.0,25,0.00,,,0.00,VWS V14.01,2013-02-01 03:10:00,
2013-01-31 22:15:00,30.6,-1.1,29.18,ENE,68,5.8,5.8,25,0.00,,,0.00,VWS V14.01,2013-02-01 03:15:00,
2013-01-31 22:20:00,30.6,-1.1,29.18,NNW,344,0.0,3.6,25,0.00,,,0.00,VWS V14.01,2013-02-01 03:20:00,
2013-01-31 22:25:00,30.6,-1.1,29.18,North,353,2.2,3.6,25,0.00,,,0.00,VWS V14.01,2013-02-01 03:25:00,
2013-01-31 22:30:00,30.6,-1.1,29.18,ESE,122,2.7,7.2,25,0.00,,,0.00,VWS V14.01,2013-02-01 03:30:00,
2013-01-31 22:35:00,30.6,-1.1,29.18,North,357,3.6,8.7,25,0.00,,,0.00,VWS V14.01,2013-02-01 03:35:00,
2013-01-31 22:40:00,30.6,-1.1,29.18,NNW,341,8.1,9.2,25,0.00,,,0.00,VWS V14.01,2013-02-01 03:40:00,
2013-01-31 22:45:00,30.7,-0.9,29.18,NNE,17,2.7,5.4,25,0.00,,,0.00,VWS V14.01,2013-02-01 03:45:00,
2013-01-31 22:50:00,30.6,-1.1,29.18,North,0,5.4,6.3,25,0.00,,,0.00,VWS V14.01,2013-02-01 03:50:00,
2013-01-31 22:55:00,30.6,-1.1,29.18,NW,317,3.1,6.3,25,0.00,,,0.00,VWS V14.01,2013-02-01 03:55:00,
2013-01-31 23:00:00,30.6,-1.1,29.18,NNW,329,4.0,4.0,25,0.00,,,0.00,VWS V14.01,2013-02-01 04:00:00,
2013-01-31 23:05:00,30.6,-1.1,29.18,North,353,7.2,7.2,25,0.00,,,0.00,VWS V14.01,2013-02-01 04:05:00,
2013-01-31 23:10:00,30.6,-1.1,29.18,NNW,327,2.7,7.6,25,0.00,,,0.00,VWS V14.01,2013-02-01 04:10:00,
2013-01-31 23:15:00,30.6,-1.1,29.18,East,83,0.0,2.2,25,0.00,,,0.00,VWS V14.01,2013-02-01 04:15:00,
2013-01-31 23:20:00,30.6,-1.1,29.18,NW,325,3.6,4.5,25,0.00,,,0.00,VWS V14.01,2013-02-01 04:20:00,
2013-01-31 23:25:00,30.6,-1.1,29.18,NW,325,3.1,3.1,25,0.00,,,0.00,VWS V14.01,2013-02-01 04:25:00,
2013-01-31 23:30:00,30.7,-0.9,29.18,ESE,102,4.0,4.0,25,0.00,,,0.00,VWS V14.01,2013-02-01 04:30:00,
2013-01-31 23:35:00,30.9,-0.8,29.18,NNW,335,0.0,2.2,25,0.00,,,0.00,VWS V14.01,2013-02-01 04:35:00,
2013-01-31 23:41:00,30.9,-0.8,29.18,NNW,335,0.0,0.0,25,0.00,,,0.00,VWS V14.01,2013-02-01 04:41:00,
2013-01-31 23:46:00,30.7,1.5,29.15,NNW,337,0.0,2.7,28,0.00,,,0.00,VWS V14.01,2013-02-01 04:46:00,
2013-01-31 23:51:00,30.6,1.4,29.15,NNW,331,0.0,0.0,28,0.00,,,0.00,VWS V14.01,2013-02-01 04:51:00,
2013-01-31 23:56:00,30.4,1.2,29.15,NNW,338,0.0,0.0,28,0.00,,,0.00,VWS V14.01,2013-02-01 04:56:00,